DORR-WX Weather Reports


time (UTC)temp
C
wind
direction
speed
KPH
gust
KPH
rain 1hr
cm
rain 24hr
cm
rain mn
cm
humidity
%
barometer
mb
20260503031610 3 190 8.0 0.0 0.00 0.00 0.00 67 991.8
20260503030142 3 190 6.4 0.0 0.00 0.00 0.00 67 991.8
20260503024610 3 194 6.4 0.0 0.00 0.00 0.00 65 992.6
20260503023129 3 199 6.4 0.0 0.00 0.00 0.00 70 992.2
20260503021610 3 212 6.4 0.0 0.00 0.00 0.00 70 992.1
20260503020140 3 225 6.4 0.0 0.00 0.00 0.00 70 992.1
20260503014610 4 235 8.0 0.0 0.00 0.00 0.00 64 991.7
20260503013128 4 239 8.0 0.0 0.00 0.00 0.00 64 991.7
20260503011610 5 237 8.0 0.0 0.00 0.00 0.00 64 991.7
20260503010140 5 243 8.0 0.0 0.00 0.00 0.00 64 991.7
20260503004609 5 245 8.0 0.0 0.00 0.00 0.00 48 992.5
20260503003123 6 242 6.4 0.0 0.00 0.00 0.00 46 992.6
20260503001610 6 252 6.4 0.0 0.00 0.00 0.00 46 992.6
20260503000145 7 270 6.4 0.0 0.00 0.00 0.00 46 992.6
20260502234611 7 290 8.0 0.0 0.00 0.00 0.00 38 992.6
20260502233123 7 289 9.7 0.0 0.00 0.00 0.00 39 992.6
20260502231611 8 291 11.3 0.0 0.00 0.00 0.00 39 992.6
20260502230137 8 292 12.9 0.0 0.00 0.00 0.00 39 992.6
20260502224611 8 290 14.5 0.0 0.00 0.00 0.00 39 992.9
20260502223129 8 288 16.1 0.0 0.00 0.00 0.00 37 993.8
20260502221611 8 283 16.1 0.0 0.00 0.00 0.00 37 993.8
20260502220138 8 281 17.7 0.0 0.00 0.00 0.00 37 993.8
20260502214611 8 281 19.3 0.0 0.00 0.00 0.00 41 993.9
20260502213129 8 278 19.3 0.0 0.00 0.00 0.00 43 993.5
20260502211611 8 275 19.3 0.0 0.00 0.00 0.00 43 993.5
20260502210140 8 274 19.3 0.0 0.00 0.00 0.00 43 993.5
20260502204610 8 272 17.7 0.0 0.00 0.00 0.00 43 994.0
20260502203129 8 270 17.7 0.0 0.00 0.00 0.00 43 994.4
20260502201611 8 271 17.7 0.0 0.00 0.00 0.00 43 994.4
20260502200137 8 271 19.3 0.0 0.00 0.00 0.00 43 994.4
20260502194611 8 271 19.3 0.0 0.00 0.00 0.00 34 994.7
20260502193124 8 272 19.3 0.0 0.00 0.00 0.00 34 994.7
20260502191611 8 275 20.9 0.0 0.00 0.00 0.00 34 994.7
20260502190139 8 279 20.9 0.0 0.00 0.00 0.00 34 994.7
20260502184611 8 280 19.3 0.0 0.00 0.00 0.00 41 994.5
20260502183130 8 290 19.3 0.0 0.00 0.00 0.00 42 994.5
20260502181610 8 287 19.3 0.0 0.00 0.00 0.00 42 994.5
20260502180145 7 284 19.3 0.0 0.00 0.00 0.00 42 994.5
20260502170135 7 278 17.7 0.0 0.00 0.00 0.00 44 995.1
20260502163130 7 280 16.1 0.0 0.00 0.00 0.00 43 994.0
20260502161610 7 282 14.5 0.0 0.00 0.00 0.00 43 994.0
20260502160141 7 285 14.5 0.0 0.00 0.00 0.00 43 994.0
20260502151611 6 297 11.3 0.0 0.00 0.00 0.00 52 994.2
20260502150144 6 293 11.3 0.0 0.00 0.00 0.00 52 994.2
20260502130139 2 336 6.4 0.0 0.00 0.00 0.00 74 994.6
20260502123128 2 331 6.4 0.0 0.00 0.00 0.00 79 994.7
20260502121611 1 332 6.4 0.0 0.00 0.00 0.00 79 994.7
20260502120154 1 319 6.4 0.0 0.00 0.00 0.00 79 994.7
20260502114611 0 300 4.8 0.0 0.00 0.00 0.00 86 994.6
20260502113132 0 306 1.6 0.0 0.00 0.00 0.00 86 994.6
20260502111611 0 304 1.6 0.0 0.00 0.00 0.00 86 994.5
20260502110140 0 310 1.6 0.0 0.00 0.00 0.00 86 994.5
20260502104610 0 315 0.0 0.0 0.00 0.00 0.00 85 994.2
20260502103129 0 7 1.6 0.0 0.00 0.00 0.00 83 994.5
20260502101610 0 349 1.6 0.0 0.00 0.00 0.00 83 994.5
20260502100140 0 321 1.6 0.0 0.00 0.00 0.00 83 994.5
20260502090139 0 297 1.6 0.0 0.00 0.00 0.00 84 994.0
20260502070141 0 325 4.8 0.0 0.00 0.00 0.00 82 993.2
20260502064610 0 322 4.8 0.0 0.00 0.00 0.00 78 994.4
20260502063130 0 295 4.8 0.0 0.00 0.00 0.00 80 994.4
20260502061610 0 286 4.8 0.0 0.00 0.00 0.00 80 994.4
20260502060156 0 295 6.4 0.0 0.00 0.00 0.00 80 994.4
20260502054610 0 299 6.4 0.0 0.00 0.00 0.00 75 993.6
20260502053129 0 303 6.4 0.0 0.00 0.00 0.00 76 994.0
20260502051609 0 321 6.4 0.0 0.00 0.00 0.00 76 994.0
20260502050141 0 325 8.0 0.0 0.00 0.00 0.00 76 994.0
20260502044611 0 324 8.0 0.0 0.00 0.00 0.00 73 993.5
20260502043128 1 338 8.0 0.0 0.00 0.00 0.00 75 993.6
20260502041610 1 335 8.0 0.0 0.00 0.00 0.00 75 993.6
20260502040142 1 332 9.7 0.0 0.00 0.00 0.00 75 993.6
20260502034610 1 332 11.3 0.0 0.00 0.00 0.00 67 993.1
20260502033129 1 323 8.0 0.0 0.00 0.00 0.00 73 992.6